Boom en verlichtingspaal belanden op auto door storm

StormCell - Onweer anders bekeken

Welkom op Stormcell.be, dé website waar onweer al sinds 2011 anders wordt bekeken.

Op onze site vindt de bezoeker duidelijke weermodellen, data van het StormCell weerstation in regio Ninove (België) én kan men het onweer live volgen via lightningmaps.org.

We beschikken over een Facebook pagina waar weer gerelateerde berichten worden gedeeld en waar we zelf ook waarschuwingen voor onweer of noodweer uitsturen indien nodig.

U leest het goed: indien nodig, dus geen onheilspellende berichten als de storm of het onweer slechts in een glas water zal woeden. We zijn niet uit op sensatie of het zaaien van angst. We bekijken het onweer met klare kijk op de feiten. 

[Source: ADDS]
METAR
EBBR 232020Z 16007KT CAVOK 17/09 Q0996 NOSIG =
EBBR 231720Z 2318/2424 09010KT CAVOK BECMG 2319/2321 17008KT PROB40 TEMPO 2408/2417 18016G26KT PROB30 TEMPO 2417/2422 18018G30KT 3000 TSRA
TAF
EBBR 231720Z 2318/2424 09010KT CAVOK BECMG 2319/2321 17008KT PROB40 TEMPO 2408/2417 18016G26KT PROB30 TEMPO 2417/2422 18018G30KT 3000 TSRA =

Visweer Vlissingen

StormCell is een non profit organisatie zonder oogmerk tot sensatie